Mojave, CA

5:42 PM PST on December 09, 2019 (GMT -0800)
Mojave

Weather History for KMHV - May, 2019

Change the Weather History Date:

Saturday, May 11, 2019

  Actual Average Record
Temperature  
Mean Temperature 64 °F -  
Max Temperature 77 °F 76 °F 94 °F (1973)
Min Temperature 51 °F 51 °F 40 °F (1967)
Degree Days  
Heating Degree Days 1    
Growing Degree Days 14 (Base 50)    
Moisture  
Dew Point 49 °F    
Average Humidity 63    
Maximum Humidity 100    
Minimum Humidity 26    
Precipitation  
Precipitation 0.00 in - - ()
Sea Level Pressure  
Sea Level Pressure 29.95 in    
Wind  
Wind Speed 7 mph (NW)    
Max Wind Speed 23 mph    
Max Gust Speed 30 mph    
Visibility 10 miles    
Events Thunderstorm    
Averages and records for this station are not official NWS values.
T = Trace of Precipitation, MM = Missing Value Source: NWS Daily Summary

Daily Weather History Graph

Daily Weather History Graph

Search for Another Location

Airport or City:

Astronomy

May. 11, 2019 Rise Set
Actual Time 5:52 AM PDT 7:46 PM PDT
Civil Twilight 5:24 AM PDT 8:14 PM PDT
Nautical Twilight 4:50 AM PDT 8:47 PM PDT
Astronomical Twilight 4:14 AM PDT 9:23 PM PDT
Moon 12:06 PM PDT (5/11) 1:29 AM PDT (5/11)
Length of Visible Light 14h 49m
Length of Day
13h 53m
Waxing Crescent, 47% of the Moon is Illuminated
May 11
Waxing Crescent
May 11
First Quarter
May 18
Full
May 26
Last Quarter
Jun 3
New

Hourly Weather History & Observations

Time (PDT) Temp. Dew Point Humidity Pressure Visibility Wind Dir Wind Speed Gust Speed Precip Events Conditions
12:00 AM 55.4 °F 53.6 °F 94% 29.94 in 10.0 mi SW 5.8 mph - N/A   Scattered Clouds
12:20 AM 55.4 °F 53.6 °F 94% 29.94 in 10.0 mi WSW 4.6 mph - N/A   Mostly Cloudy
12:40 AM 53.6 °F 53.6 °F 100% 29.94 in 10.0 mi West 3.5 mph - N/A   Mostly Cloudy
1:00 AM 53.6 °F 53.6 °F 100% 29.94 in 10.0 mi WSW 4.6 mph - N/A   Scattered Clouds
1:20 AM 51.8 °F 51.8 °F 100% 29.94 in 10.0 mi NW 3.5 mph - N/A   Scattered Clouds
1:40 AM 51.8 °F 51.8 °F 100% 29.94 in 10.0 mi NW 5.8 mph - N/A   Overcast
2:00 AM 53.6 °F 50.0 °F 88% 29.94 in 10.0 mi NNW 5.8 mph - N/A   Overcast
2:20 AM 51.8 °F 50.0 °F 94% 29.94 in 10.0 mi NW 8.1 mph - N/A   Mostly Cloudy
2:40 AM 51.8 °F 50.0 °F 94% 29.94 in 10.0 mi Calm Calm - N/A   Overcast
3:00 AM 53.6 °F 51.8 °F 94% 29.95 in 10.0 mi Calm Calm - N/A   Overcast
3:20 AM 53.6 °F 51.8 °F 94% 29.95 in 10.0 mi Calm Calm - N/A   Overcast
3:40 AM 53.6 °F 51.8 °F 94% 29.95 in 10.0 mi WSW 3.5 mph - N/A   Overcast
4:00 AM 53.6 °F 51.8 °F 94% 29.96 in 10.0 mi West 4.6 mph - N/A   Overcast
4:20 AM 53.6 °F 51.8 °F 94% 29.95 in 10.0 mi West 4.6 mph - N/A   Mostly Cloudy
4:40 AM 55.4 °F 50.0 °F 82% 29.95 in 10.0 mi WNW 5.8 mph - N/A   Overcast
5:00 AM 55.4 °F 50.0 °F 82% 29.95 in 10.0 mi NW 4.6 mph - N/A   Overcast
5:20 AM 55.4 °F 51.8 °F 88% 29.95 in 10.0 mi Calm Calm - N/A   Overcast
5:40 AM 55.4 °F 51.8 °F 88% 29.94 in 10.0 mi NW 4.6 mph - N/A   Overcast
6:00 AM 55.4 °F 50.0 °F 82% 29.95 in 10.0 mi Calm Calm - N/A   Overcast
6:20 AM 55.4 °F 51.8 °F 88% 29.96 in 10.0 mi Calm Calm - N/A   Overcast
6:40 AM 55.4 °F 50.0 °F 82% 29.96 in 10.0 mi Calm Calm - N/A   Overcast
7:00 AM 57.2 °F 51.8 °F 82% 29.97 in 10.0 mi ENE 3.5 mph - N/A   Overcast
7:20 AM 55.4 °F 51.8 °F 88% 29.98 in 10.0 mi East 6.9 mph - N/A   Overcast
7:40 AM 55.4 °F 53.6 °F 94% 29.99 in 10.0 mi SSE 6.9 mph - N/A   Overcast
8:00 AM 55.4 °F 53.6 °F 94% 30.00 in 10.0 mi SSW 3.5 mph - N/A   Overcast
8:20 AM 57.2 °F 53.6 °F 88% 30.00 in 10.0 mi West 4.6 mph - N/A   Overcast
8:40 AM 57.2 °F 53.6 °F 88% 30.00 in 10.0 mi NW 4.6 mph - N/A   Mostly Cloudy
9:00 AM 59.0 °F 51.8 °F 77% 29.99 in 10.0 mi WSW 3.5 mph - N/A   Scattered Clouds
9:20 AM 60.8 °F 50.0 °F 68% 29.99 in 10.0 mi Calm Calm - N/A   Clear
9:40 AM 60.8 °F 50.0 °F 68% 29.99 in 10.0 mi Calm Calm - N/A   Clear
10:00 AM 64.4 °F 48.2 °F 56% 29.99 in 10.0 mi Calm Calm - N/A   Clear
10:20 AM 66.2 °F 46.4 °F 49% 29.99 in 10.0 mi Calm Calm - N/A   Partly Cloudy
10:40 AM 66.2 °F 46.4 °F 49% 29.99 in 10.0 mi Calm Calm - N/A   Partly Cloudy
11:00 AM 68.0 °F 46.4 °F 46% 29.99 in 10.0 mi East 3.5 mph - N/A   Partly Cloudy
11:20 AM 68.0 °F 44.6 °F 43% 29.99 in 10.0 mi NE 8.1 mph - N/A   Partly Cloudy
11:40 AM 69.8 °F 46.4 °F 43% 29.98 in 10.0 mi Variable 4.6 mph - N/A   Partly Cloudy
12:00 PM 71.6 °F 44.6 °F 38% 29.98 in 10.0 mi ENE 9.2 mph - N/A   Clear
12:20 PM 71.6 °F 44.6 °F 38% 29.98 in 10.0 mi NE 9.2 mph - N/A   Clear
12:40 PM 71.6 °F 44.6 °F 38% 29.97 in 10.0 mi ENE 9.2 mph - N/A   Clear
1:00 PM 71.6 °F 42.8 °F 35% 29.96 in 10.0 mi ENE 10.4 mph - N/A   Clear
1:20 PM 73.4 °F 42.8 °F 33% 29.96 in 10.0 mi North 8.1 mph 20.7 mph N/A   Clear
1:40 PM 73.4 °F 42.8 °F 33% 29.95 in 10.0 mi Calm Calm 15.0 mph N/A   Clear
2:00 PM 75.2 °F 42.8 °F 31% 29.94 in 10.0 mi NE 9.2 mph - N/A   Clear
2:20 PM 75.2 °F 39.2 °F 27% 29.94 in 10.0 mi NE 9.2 mph - N/A   Clear
2:40 PM 75.2 °F 41.0 °F 29% 29.93 in 10.0 mi ENE 12.7 mph - N/A   Clear
3:00 PM 75.2 °F 41.0 °F 29% 29.92 in 10.0 mi North 8.1 mph - N/A   Clear
3:20 PM - - N/A% - - North - - N/A   Unknown
3:40 PM 77.0 °F 39.2 °F 26% 29.90 in 10.0 mi NE 10.4 mph 19.6 mph N/A   Unknown
4:00 PM 77.0 °F 48.2 °F 36% 29.90 in 10.0 mi West 13.8 mph 20.7 mph N/A Thunderstorm Partly Cloudy
4:20 PM 73.4 °F 50.0 °F 44% 29.90 in 10.0 mi WNW 23.0 mph 29.9 mph N/A   Partly Cloudy
4:40 PM 73.4 °F 48.2 °F 41% 29.90 in 10.0 mi WNW 20.7 mph 26.5 mph N/A   Scattered Clouds
5:00 PM 75.2 °F 48.2 °F 38% 29.90 in 10.0 mi WNW 15.0 mph - N/A   Partly Cloudy
5:20 PM 73.4 °F 50.0 °F 44% 29.90 in 10.0 mi WNW 17.3 mph - N/A   Clear
5:40 PM 73.4 °F 50.0 °F 44% 29.89 in 10.0 mi WNW 18.4 mph - N/A   Clear
6:00 PM 75.2 °F 50.0 °F 41% 29.89 in 10.0 mi WNW 15.0 mph - N/A   Clear
6:20 PM 73.4 °F 48.2 °F 41% 29.89 in 10.0 mi WNW 16.1 mph - N/A   Partly Cloudy
6:40 PM 73.4 °F 46.4 °F 38% 29.89 in 10.0 mi WNW 15.0 mph 20.7 mph N/A   Partly Cloudy
7:00 PM 71.6 °F 48.2 °F 43% 29.90 in 10.0 mi WNW 15.0 mph 23.0 mph N/A   Clear
7:20 PM 69.8 °F 46.4 °F 43% 29.91 in 10.0 mi WNW 18.4 mph - N/A   Clear
7:40 PM 68.0 °F 46.4 °F 46% 29.91 in 10.0 mi WNW 18.4 mph 24.2 mph N/A   Clear
8:00 PM 68.0 °F 48.2 °F 49% 29.91 in 10.0 mi WNW 20.7 mph - N/A   Clear
8:20 PM 66.2 °F 50.0 °F 56% 29.92 in 10.0 mi WNW 18.4 mph - N/A   Clear
8:40 PM 66.2 °F 50.0 °F 56% 29.93 in 10.0 mi WNW 16.1 mph - N/A   Clear
9:00 PM 66.2 °F 50.0 °F 56% 29.93 in 10.0 mi WNW 17.3 mph 23.0 mph N/A   Clear
9:20 PM 66.2 °F 50.0 °F 56% 29.93 in 10.0 mi WNW 13.8 mph - N/A   Clear
9:40 PM 66.2 °F 50.0 °F 56% 29.94 in 10.0 mi WNW 15.0 mph - N/A   Clear
10:00 PM 66.2 °F 50.0 °F 56% 29.94 in 10.0 mi WNW 12.7 mph 20.7 mph N/A   Clear
10:20 PM 66.2 °F 50.0 °F 56% 29.94 in 10.0 mi WNW 13.8 mph - N/A   Clear
10:40 PM 66.2 °F 50.0 °F 56% 29.94 in 10.0 mi WNW 13.8 mph - N/A   Clear
11:00 PM 64.4 °F 50.0 °F 59% 29.94 in 10.0 mi WNW 10.4 mph - N/A   Clear
11:20 PM 66.2 °F 48.2 °F 52% 29.94 in 10.0 mi WNW 11.5 mph - N/A   Clear
11:40 PM 66.2 °F 46.4 °F 49% 29.94 in 10.0 mi WNW 12.7 mph - N/A   Clear